DELTA 1 DEB, 40766

Orbit data source: Space-Track

DELTA 1 DEB, 40766 is space debris in LEO originally from a launch on Thu, 29 Jul 1976 UTC launched from the Air Force Western Test Range (AFWTR). Debris objects in space refer to the collection of defunct objects orbiting the Earth. Examples of debris include non-operational satellites, rocket bodies, and fragments generated from explosions, collisions, or faulty payload assembly.

Loading next visibility...
DELTA 1 DEB details
Identifier
40766, 1976-077GK
Orbit
LEO
Last TLE update2 days ago
Origin
Flag of USGSFC (US)
ManufacturerUnknown
MissionSpacecraft
Bus & MotorUnknown
MassUnknown
Launch date (UTC)
1976-07-29 (48 years ago)
Launch vehicleUnknown
Launch site
Air Force Western Test Range (AFWTR)
Object type
Payload
Rocket body
Debris
Shape & HBRUnknown
Radar Cross SectionSmall (<0.1 m²)

Expand to show TLE details & history

TLE from 2 days ago
0 DELTA 1 DEB
1 40766U 76077GK  24345.96834587  .00000029  00000-0  65754-3 0  9999
2 40766 102.1668 253.4491 0101549 116.5473 306.8404 12.23203893 53369
Epoch: 2024-12-10T23:14Z
Definitive object data (Epoch: 2024-12-10T23:14:25.083Z)
Latitude60.16681°
Longitude162.7047°
Altitude1,540.723 km
Speed7.123 km/s
True Right ascension15h 25m 54s
True Declination60° 01' 58"
Sunlit
Object was in daylight at TLE epoch
Visualization TLE readout
Latitude-62.63461°
Longitude-148.48785°
Altitude1,683.164 km
Speed6.997 km/s
Apparent Right ascension19h 23m 22s
Apparent Declination-52° 48' 58"
Sunlit
Object is in daylight
Visualization observer readout
Local Sidereal Time07:55:18
Azimuth159.709° S
Elevation-75.994°
Doppler factor1
Orbital elements
Apogee altitude1,656.999 km
Perigee altitude1,495.448 km
Semi-major axis7,954.36 km
Eccentricity0.0101549
Inclination102.1668°
RAAN253.4491°
Arg. of periapsis116.5473°
True anomaly305.90201°
Mean anomaly306.8404°
Eccentric anomaly306.37192°
Mean motion3.05939 °/min
BSTAR0.00065754
Orbital period117.67 mins
Loading maneuver chart data...
Loading historical data...
Loading historical data...
Loading historical data...
Loading historical data...
Loading historical data...
Loading historical data...
Loading historical data...

DELTA 1 DEB Visibility forecast

Observer location: undefined°, undefined

Span
Click to sort rows by Start time (UTC) header in descending order
Start Az.
Max El. time (UTC)
Max El. Az.
Max El.
End time (UTC)
End Az.
11 mins2024-12-13 15:51:32.420Z94.875° ESE2024-12-13 15:57:32.420Z49.41° ENE20.45°2024-12-13 16:02:32.420Z10.462° NNE
15 mins2024-12-13 17:44:32.420Z159.572° S2024-12-13 17:51:32.420Z155.754° SSE44.974°2024-12-13 17:59:32.420Z342.214° N
9 mins2024-12-13 19:43:32.420Z234.159° WSW2024-12-13 19:48:32.420Z271.992° WNW17.179°2024-12-13 19:52:32.420Z302.018° NW
14 mins2024-12-14 06:04:32.420Z38.654° NE2024-12-14 06:10:32.420Z95.336° ESE32.137°2024-12-14 06:18:32.420Z165.529° S
14 mins2024-12-14 07:59:32.420Z4.355° NNE2024-12-14 08:06:32.420Z293.59° NW36.501°2024-12-14 08:13:32.420Z229.552° WSW
|